Weather History for LIRM - September, 2012

Change the Weather History Date:

Wednesday, September 5, 2012

  Actual Average (LIRN) Record (LIRN)
Temperature  
Mean Temperature 74 °F -  
Max Temperature 80 °F 79 °F 87 °F (2013)
Min Temperature 67 °F 58 °F 57 °F (2007)
Cooling Degree Days 8    
Growing Degree Days 24 (Base 50)    
Moisture  
Dew Point 66 °F    
Average Humidity 85    
Maximum Humidity 94    
Minimum Humidity 65    
Precipitation  
Precipitation 0.79 in 0.11 in - ()
Sea Level Pressure  
Sea Level Pressure 29.92 in    
Wind  
Wind Speed 5 mph ()    
Max Wind Speed 13 mph    
Max Gust Speed -    
Visibility 5.8 miles    
Events Rain , Thunderstorm    
Averages and records for this station are not official NWS values.
T = Trace of Precipitation, MM = Missing Value Source: Averaged Metar Reports

Daily Weather History Graph

Daily Weather History Graph

Search for Another Location

Airport or City:

Trip Planner

Search our weather history database for the weather conditions in past years. The results will help you decide how hot, cold, wet, or windy it might be!

Date:

Astronomy

Sep. 05, 2012 Rise Set
Actual Time 6:34 AM CEST 7:29 PM CEST
Civil Twilight 6:06 AM CEST 7:57 PM CEST
Nautical Twilight 5:33 AM CEST 8:30 PM CEST
Astronomical Twilight 4:58 AM CEST 9:05 PM CEST
Moon 9:45 PM CEST (9/5) 11:25 AM CEST (9/5)
Length of Visible Light 13h 50m
Length of Day
12h 54m
Waning Gibbous, 78% of the Moon is Illuminated
Sep 5
Waning Gibbous
Sep 8
Last Quarter
Sep 16
New
Sep 22
First Quarter
Sep 30
Full

Hourly Weather History & Observations

Time (CEST) Temp. Dew Point Humidity Pressure Visibility Wind Dir Wind Speed Gust Speed Precip Events Conditions
12:55 AM 66.2 °F 62.6 °F 88% 29.92 in 6.2 mi East 3.5 mph - N/A   Scattered Clouds
1:55 AM 66.2 °F 62.6 °F 88% 29.92 in 6.2 mi ESE 8.1 mph - N/A   Scattered Clouds
2:00 AM 66 °F 62 °F 84% 29.93 in 9 mi ESE 8.1 mph - -   Partly Cloudy
2:55 AM 66.2 °F 62.6 °F 88% 29.92 in 6.2 mi East 6.9 mph - N/A   Partly Cloudy
3:55 AM 68.0 °F 64.4 °F 88% 29.92 in 6.2 mi ESE 5.8 mph - N/A   Partly Cloudy
4:55 AM 68.0 °F 64.4 °F 88% 29.92 in 6.2 mi ESE 5.8 mph - N/A   Partly Cloudy
5:00 AM 68 °F 64 °F 82% 29.92 in 12 mi ESE 5.8 mph - -   Partly Cloudy
5:55 AM 66.2 °F 62.6 °F 88% 29.89 in 5.0 mi WNW 4.6 mph - N/A Thunderstorm Thunderstorm
6:38 AM 68.0 °F 64.4 °F 88% 29.89 in 5.0 mi West 3.5 mph - N/A Rain , Thunderstorm Light Thunderstorms and Rain
6:55 AM 68.0 °F 64.4 °F 88% 29.89 in 3.1 mi WSW 5.8 mph - N/A Rain , Thunderstorm Light Thunderstorms and Rain
7:31 AM 68.0 °F 64.4 °F 88% 29.92 in 5.0 mi East 5.8 mph - N/A Thunderstorm Thunderstorm
7:55 AM 68.0 °F 64.4 °F 88% 29.92 in 5.0 mi ENE 5.8 mph - N/A Thunderstorm Thunderstorm
8:00 AM 68 °F 64 °F 83% 29.92 in 5 mi ENE 5.8 mph - - Thunderstorm Thunderstorm
8:55 AM 68.0 °F 64.4 °F 88% 29.92 in 6.2 mi ENE 8.1 mph - N/A   Mostly Cloudy
9:55 AM 73.4 °F 68.0 °F 83% 29.92 in 6.2 mi East 12.7 mph - N/A   Mostly Cloudy
10:55 AM 77.0 °F 68.0 °F 74% 29.92 in 6.2 mi Calm Calm - N/A   Mostly Cloudy
11:00 AM 76 °F 69 °F 72% 29.92 in 9 mi East 10.4 mph - -   Partly Cloudy
11:55 AM 73.4 °F 71.6 °F 94% 29.92 in 6.2 mi NNW 4.6 mph - N/A   Mostly Cloudy
1:12 PM 71.6 °F 68.0 °F 88% 29.92 in 2.2 mi NNW 6.9 mph - N/A Rain , Thunderstorm Light Thunderstorms and Rain
1:26 PM 71.6 °F 68.0 °F 88% 29.92 in 1.6 mi NW 4.6 mph - N/A Rain , Thunderstorm Light Thunderstorms and Rain
1:55 PM 69.8 °F 66.2 °F 88% 29.92 in 3.1 mi NW 5.8 mph - N/A Rain Light Rain
2:00 PM 69 °F 65 °F 84% 29.94 in 3 mi NW 5.8 mph - - Rain Light Rain
2:06 PM 69.8 °F 66.2 °F 88% 29.92 in 4.3 mi NNE 8.1 mph - N/A   Scattered Clouds
2:55 PM 73.4 °F 69.8 °F 88% 29.92 in 6.2 mi ENE 5.8 mph - N/A   Scattered Clouds
3:55 PM 77.0 °F 69.8 °F 78% 29.92 in 6.2 mi SSW 2.3 mph - N/A   Scattered Clouds
4:55 PM 78.8 °F 68.0 °F 69% 29.92 in 6.2 mi NW 2.3 mph - N/A   Scattered Clouds
5:00 PM 78 °F 68 °F 65% 29.93 in 12 mi NW 2.3 mph - -   Partly Cloudy
5:55 PM 77.0 °F 66.2 °F 69% 29.92 in 6.2 mi WSW 5.8 mph - N/A   Mostly Cloudy
6:55 PM 75.2 °F 69.8 °F 83% 29.92 in 6.2 mi SSW 2.3 mph - N/A   Mostly Cloudy
7:55 PM 73.4 °F 71.6 °F 94% 29.92 in 6.2 mi SSW 11.5 mph - N/A Rain Light Rain
8:00 PM 73 °F 72 °F 94% 29.94 in 4 mi SSW 11.5 mph - - Rain Light Rain
8:55 PM 68.0 °F 66.2 °F 94% 29.95 in 4.3 mi Calm Calm - N/A Rain Light Rain
9:55 PM 68.0 °F 64.4 °F 88% 29.92 in 6.2 mi ENE 5.8 mph - N/A   Mostly Cloudy
10:55 PM 68.0 °F 64.4 °F 88% 29.95 in 6.2 mi ENE 3.5 mph - N/A   Scattered Clouds
11:00 PM 68 °F 65 °F 85% 29.95 in 6 mi ENE 3.5 mph - -   Partly Cloudy
11:55 PM 68.0 °F 64.4 °F 88% 29.95 in 6.2 mi East 5.8 mph - N/A   Scattered Clouds